Showing default

GLOBALSTAR M028, 25875

Orbit data source: Space-Track

GLOBALSTAR M028, 25875 is a payload satellite owned by Globalstar (US) in LEO that was launched on Sun, 25 Jul 1999 UTC via a DELTA 7420-10C launch vehicle from the Air Force Eastern Test Range (AFETR). Payload-class satellites include a variety of spacecraft equipped with specific instruments for various scientific and technological missions. These include communications satellites like Starlink; space stations such as the ISS; scientific satellites like the Hubble; Earth observation satellites from companies like Planet Labs, Umbra, and HawkEye 360; GPS; miniature CubeSats for education and research; and military/defense satellites.

Loading next visibility...
Identifier
25875, 1999-041D
Orbit
LEO
Country
Flag of UnknownUnknown / GLOB
Related business
Manufacturer
SS/Loral
Mission
Non-operational Commercial Communications
Bus & Motor
LS-400, LS-400 AOCS
Mass
450 kg wet, 380 kg dry
Launch date (UTC)
1999-07-25 (26 years ago)
Launch vehicle
DELTA 7420-10C
Launch site
Air Force Eastern Test Range (AFETR)
Object type
Payload
Rocket body
Debris
Shape & HBR
Box + 2 Pan, 6.0 m
Radar Cross Section
5.587 m², Large (>1 m²)

Expand to show TLE details & history
Last TLE update: 8 hours ago

TLE from 8 hours ago
0 GLOBALSTAR M028
1 25875U 99041D   25312.73548619 -.00000090  00000-0  65679-4 0  9993
2 25875  51.9598 122.0438 0063633  26.3093 334.0977 12.50591307208264
Epoch: 2025-11-08T17:39Z
TLE epoch observation values (Epoch: 2025-11-08T17:39:06.006Z)
Latitude
-0.00009°
Longitude
169.10788°
Altitude
1,417.881 km
Speed
7.173 km/s
True Right ascension
08h 08m 10s
True Declination
0° 00' 00"
Sunlit
Object was in daylight at epoch
Visualization orbit readout
Latitude
Unknown
Longitude
Unknown
Altitude
Unknown
Speed
Unknown
Apparent Right ascension
Unknown
Apparent Declination
Unknown
Sunlit
N/A
Visualization observer readout
Local Sidereal Time
22:09:51
Azimuth
Unknown
Elevation
Unknown
Doppler factor
Unknown
Orbital elements
Apogee altitude
1,512.31 km
Perigee altitude
1,412.527 km
Semi-major axis
7,840.555 km
Eccentricity
0.00636
Inclination
51.9598°
RAAN
122.0438°
Arg. of periapsis
26.3093°
True anomaly
333.77687°
Mean anomaly
334.0977°
Eccentric anomaly
333.93752°
Mean motion
3.12624 °/min
Orbital period
115.15 mins
BSTAR
0.000065679
Loading maneuver chart data...
Computing Atmospheric mass density...
Loading historical data...
Loading historical data...
Loading historical data...
Loading historical data...
Loading historical data...
Loading historical data...
Loading historical data...
Other satellites on launch #41 in the year 1999 (1999-07-25 UTC)

Documentation

Showing up to 5 results
|